User: anonymous   Login
Location: Hale Hill Observatory
(39.3806°N, 86.8431°W)
Time: 00:35:25
(UTC-04:00)
Language:

Cosmos 990 Rocket - Orbit

View from above orbital plane
View from above orbital plane
View from above satellite
View from above satellite

Ground track
Ground track

The orbit data is extracted from the following two-line orbital elements,

1 10677U 78019B   15090.20781021  .00000361  00000-0  12325-3 0  9998
2 10677 074.0402 355.8918 0016389 268.5893 091.3385 14.39830009946057
Epoch (UTC): 31 March 2015 04:59:14
Eccentricity: 0.0016389
inclination: 74.0402°
perigee height: 747 km
apogee height: 771 km
right ascension of ascending node: 355.8918°
argument of perigee: 268.5893°
revolutions per day: 14.39830009
mean anomaly at epoch: 91.3385°
orbit number at epoch: 94605

The dashed part of the orbit path shows where the satellite is in the earth's shadow,  

DLR